,,Stat5,,Stat1,,Stat2,,Stat3,,Stat4,,Wind1,,Wind1,
time,status,PA1M_AVG,status,PR1M_SUM,status,RH1M_AVG,status,SR1M_AVG,status,TA1M_AVG,status,W1dAve1m,status,W1sAve1m,
2002-12-04, 00:00:00,VALID,919.368,VALID,0,VALID,99.7256,VALID,-0.0679233,VALID,19.5499,VALID,326,VALID,0.440341,
2002-12-04, 00:01:00,VALID,919.393,VALID,0,VALID,99.7141,VALID,-0.101885,VALID,19.563,VALID,350,VALID,0.505701,
2002-12-04, 00:02:00,VALID,919.39,VALID,0,VALID,99.7281,VALID,-0.0509425,VALID,19.5464,VALID,1,VALID,0.695503,
2002-12-04, 00:03:00,VALID,919.412,VALID,0,VALID,99.723,VALID,-0.0849042,VALID,19.5245,VALID,2,VALID,0.406473,
2002-12-04, 00:04:00,VALID,919.41,VALID,0,VALID,99.7205,VALID,-0.0849042,VALID,19.5203,VALID,2,VALID,0.247596,
2002-12-04, 00:05:00,VALID,919.421,VALID,0,VALID,99.723,VALID,-0.0509425,VALID,19.5496,VALID,2,VALID,0.0893159,
2002-12-04, 00:06:00,VALID,919.409,VALID,0,VALID,99.7103,VALID,-0.0339617,VALID,19.5755,VALID,2,VALID,0.0284455,
2002-12-04, 00:07:00,VALID,919.407,VALID,0,VALID,99.7078,VALID,-0.0169808,VALID,19.5752,VALID,2,VALID,0.250422,
2002-12-04, 00:08:00,VALID,919.382,VALID,0,VALID,99.7167,VALID,-0.0339617,VALID,19.5949,VALID,2,VALID,0.0683036,
2002-12-04, 00:09:00,VALID,919.359,VALID,0,VALID,99.7167,VALID,-0.0169808,VALID,19.5911,VALID,2,VALID,0,
2002-12-04, 00:10:00,VALID,919.344,VALID,0,VALID,99.7141,VALID,-0.0849042,VALID,19.5946,VALID,2,VALID,0.0777027,
2002-12-04, 00:11:00,VALID,919.338,VALID,0,VALID,99.7154,VALID,-0.0509425,VALID,19.5914,VALID,2,VALID,0.170573,
2002-12-04, 00:12:00,VALID,919.353,VALID,0,VALID,99.7116,VALID,-0.0849042,VALID,19.5655,VALID,2,VALID,0.165234,
2002-12-04, 00:13:00,VALID,919.338,VALID,0,VALID,99.718,VALID,-0.0509425,VALID,19.5496,VALID,3,VALID,0.503676,
2002-12-04, 00:14:00,VALID,919.335,VALID,0,VALID,99.7129,VALID,-0.0509425,VALID,19.5367,VALID,13,VALID,1.04905,
2002-12-04, 00:15:00,VALID,919.337,VALID,0,VALID,99.7167,VALID,0,VALID,19.5002,VALID,14,VALID,1.05332,
2002-12-04, 00:16:00,VALID,919.351,VALID,0,VALID,99.7065,VALID,-0.0339617,VALID,19.455,VALID,13,VALID,1.11443,
2002-12-04, 00:17:00,VALID,919.32,VALID,0,VALID,99.7218,VALID,-0.0679233,VALID,19.4331,VALID,13,VALID,1.26429,
2002-12-04, 00:18:00,VALID,919.313,VALID,0,VALID,99.7154,VALID,-0.0169808,VALID,19.4005,VALID,6,VALID,1.22696,
2002-12-04, 00:19:00,VALID,919.306,VALID,0,VALID,99.7091,VALID,-0.0339617,VALID,19.3779,VALID,344,VALID,1.06018,
2002-12-04, 00:20:00,VALID,919.32,VALID,0,VALID,99.7205,VALID,-0.0339617,VALID,19.4107,VALID,335,VALID,1.05848,
2002-12-04, 00:21:00,VALID,919.312,VALID,0,VALID,99.7192,VALID,-0.0509425,VALID,19.4299,VALID,336,VALID,0.810096,
2002-12-04, 00:22:00,VALID,919.293,VALID,0,VALID,99.7192,VALID,-0.0509425,VALID,19.4296,VALID,346,VALID,0.854307,
2002-12-04, 00:23:00,VALID,919.3,VALID,0,VALID,99.7167,VALID,-0.0509425,VALID,19.4328,VALID,3,VALID,0.954861,
2002-12-04, 00:24:00,VALID,919.279,VALID,0,VALID,99.7154,VALID,-0.0339617,VALID,19.4525,VALID,324,VALID,0.447266,
2002-12-04, 00:25:00,VALID,919.272,VALID,0,VALID,99.723,VALID,-0.0509425,VALID,19.4582,VALID,353,VALID,0.671645,
2002-12-04, 00:26:00,VALID,919.245,VALID,0,VALID,99.718,VALID,-0.0509425,VALID,19.4778,VALID,7,VALID,0.295356,
2002-12-04, 00:27:00,VALID,919.228,VALID,0,VALID,99.7103,VALID,-0.0509425,VALID,19.4815,VALID,7,VALID,0.0318359,
2002-12-04, 00:28:00,VALID,919.207,VALID,0,VALID,99.7319,VALID,-0.0509425,VALID,19.5009,VALID,9,VALID,0.300781,
2002-12-04, 00:29:00,VALID,919.197,VALID,0,VALID,99.7205,VALID,-0.0339617,VALID,19.5034,VALID,18,VALID,0.72567,
2002-12-04, 00:30:00,VALID,919.165,VALID,0,VALID,99.7116,VALID,-0.0679233,VALID,19.5235,VALID,344,VALID,0.798478,
2002-12-04, 00:31:00,VALID,919.147,VALID,0,VALID,99.7154,VALID,-0.0849042,VALID,19.5109,VALID,350,VALID,0.695524,
2002-12-04, 00:32:00,VALID,919.131,VALID,0,VALID,99.7154,VALID,-0.0339617,VALID,19.5069,VALID,14,VALID,0.7375,
2002-12-04, 00:33:00,VALID,919.124,VALID,0,VALID,99.7205,VALID,-0.0679233,VALID,19.5298,VALID,2,VALID,0.384615,
2002-12-04, 00:34:00,VALID,919.113,VALID,0,VALID,99.7129,VALID,-0.0679233,VALID,19.5166,VALID,359,VALID,0.649493,
2002-12-04, 00:35:00,VALID,919.105,VALID,0,VALID,99.7154,VALID,-0.0679233,VALID,19.5298,VALID,353,VALID,0.509766,
2002-12-04, 00:36:00,VALID,919.099,VALID,0,VALID,99.7154,VALID,0.0679233,VALID,19.5126,VALID,344,VALID,0.587695,
2002-12-04, 00:37:00,VALID,919.081,VALID,0,VALID,99.7218,VALID,0.0339617,VALID,19.5318,VALID,5,VALID,0.773208,
2002-12-04, 00:38:00,VALID,919.073,VALID,0,VALID,99.7116,VALID,0,VALID,19.5186,VALID,345,VALID,0.519965,
2002-12-04, 00:39:00,VALID,919.058,VALID,0,VALID,99.7243,VALID,0.0509425,VALID,19.5325,VALID,7,VALID,1.12578,
2002-12-04, 00:40:00,VALID,919.04,VALID,0,VALID,99.7192,VALID,0.0679233,VALID,19.5126,VALID,1,VALID,0.696691,
2002-12-04, 00:41:00,VALID,919.037,VALID,0,VALID,99.7154,VALID,0.0679233,VALID,19.5091,VALID,5,VALID,0.585045,
2002-12-04, 00:42:00,VALID,919.02,VALID,0,VALID,99.7218,VALID,0.0509425,VALID,19.5151,VALID,14,VALID,0.494191,
2002-12-04, 00:43:00,VALID,919.006,VALID,0,VALID,99.7243,VALID,0.0849042,VALID,19.525,VALID,14,VALID,0.443412,
2002-12-04, 00:44:00,VALID,919.004,VALID,0,VALID,99.7167,VALID,0.0169808,VALID,19.5449,VALID,21,VALID,0.446652,
2002-12-04, 00:45:00,VALID,918.997,VALID,0,VALID,99.7256,VALID,0.0509425,VALID,19.5449,VALID,3,VALID,0.304087,
2002-12-04, 00:46:00,VALID,918.992,VALID,0,VALID,99.7243,VALID,0.0169808,VALID,19.5355,VALID,358,VALID,0.414274,
2002-12-04, 00:47:00,VALID,918.961,VALID,0,VALID,99.718,VALID,0,VALID,19.5129,VALID,350,VALID,0.494575,
2002-12-04, 00:48:00,VALID,918.958,VALID,0,VALID,99.7269,VALID,0.0679233,VALID,19.5034,VALID,346,VALID,0.621875,
2002-12-04, 00:49:00,VALID,918.933,VALID,0,VALID,99.7358,VALID,0.0339617,VALID,19.4803,VALID,346,VALID,0.265855,
2002-12-04, 00:50:00,VALID,918.923,VALID,0,VALID,99.7358,VALID,0.0509425,VALID,19.4965,VALID,9,VALID,0.580946,
2002-12-04, 00:51:00,VALID,918.889,VALID,0,VALID,99.7269,VALID,-0.0679233,VALID,19.4875,VALID,344,VALID,0.825195,
2002-12-04, 00:52:00,VALID,918.878,VALID,0,VALID,99.7345,VALID,-0.0509425,VALID,19.4619,VALID,354,VALID,0.953125,
2002-12-04, 00:53:00,VALID,918.874,VALID,0,VALID,99.7281,VALID,-0.0679233,VALID,19.4788,VALID,345,VALID,0.491964,
2002-12-04, 00:54:00,VALID,918.854,VALID,0,VALID,99.7269,VALID,-0.0849042,VALID,19.4626,VALID,4,VALID,0.541466,
2002-12-04, 00:55:00,VALID,918.837,VALID,0,VALID,99.7269,VALID,-0.0849042,VALID,19.4619,VALID,1,VALID,0.633235,
2002-12-04, 00:56:00,VALID,918.858,VALID,0,VALID,99.7434,VALID,-0.0849042,VALID,19.4786,VALID,8,VALID,0.309821,
2002-12-04, 00:57:00,VALID,918.838,VALID,0,VALID,99.7358,VALID,-0.0339617,VALID,19.4885,VALID,9,VALID,0.489583,
2002-12-04, 00:58:00,VALID,918.822,VALID,0,VALID,99.737,VALID,-0.0679233,VALID,19.4848,VALID,12,VALID,0.954181,
2002-12-04, 00:59:00,VALID,918.809,VALID,0,VALID,99.7358,VALID,-0.0849042,VALID,19.482,VALID,13,VALID,0.925781,
2002-12-04, 01:00:00,VALID,918.789,VALID,0,VALID,99.7281,VALID,-0.0509425,VALID,19.485,VALID,12,VALID,0.951758,
2002-12-04, 01:01:00,VALID,918.774,VALID,0,VALID,99.737,VALID,-0.0509425,VALID,19.4781,VALID,357,VALID,0.807904,
2002-12-04, 01:02:00,VALID,918.766,VALID,0,VALID,99.7408,VALID,-0.101885,VALID,19.4691,VALID,337,VALID,0.705729,
2002-12-04, 01:03:00,VALID,918.754,VALID,0,VALID,99.7256,VALID,-0.0679233,VALID,19.4525,VALID,338,VALID,0.563281,
2002-12-04, 01:04:00,VALID,918.762,VALID,0,VALID,99.7396,VALID,-0.101885,VALID,19.4559,VALID,348,VALID,0.911994,
2002-12-04, 01:05:00,VALID,918.754,VALID,0,VALID,99.7396,VALID,-0.0849042,VALID,19.4753,VALID,345,VALID,0.479241,
2002-12-04, 01:06:01,VALID,918.747,VALID,0,VALID,99.7434,VALID,-0.0679233,VALID,19.5014,VALID,345,VALID,0.244391,
2002-12-04, 01:07:00,VALID,918.721,VALID,0,VALID,99.7421,VALID,-0.0849042,VALID,19.5146,VALID,341,VALID,0.766258,
2002-12-04, 01:08:00,VALID,918.706,VALID,0,VALID,99.7421,VALID,-0.0849042,VALID,19.4952,VALID,344,VALID,0.676116,
2002-12-04, 01:09:00,VALID,918.685,VALID,0,VALID,99.7497,VALID,-0.101885,VALID,19.5143,VALID,4,VALID,0.725761,
2002-12-04, 01:10:00,VALID,918.682,VALID,0,VALID,99.7332,VALID,-0.101885,VALID,19.5176,VALID,346,VALID,0.558488,
2002-12-04, 01:11:00,VALID,918.664,VALID,0,VALID,99.7447,VALID,-0.101885,VALID,19.4945,VALID,323,VALID,0.777344,
2002-12-04, 01:12:00,VALID,918.644,VALID,0,VALID,99.7396,VALID,-0.101885,VALID,19.4786,VALID,311,VALID,0.337109,
2002-12-04, 01:13:00,VALID,918.638,VALID,0,VALID,99.7485,VALID,-0.0679233,VALID,19.4885,VALID,301,VALID,0.209789,
2002-12-04, 01:14:00,VALID,918.62,VALID,0,VALID,99.7408,VALID,-0.0849042,VALID,19.4912,VALID,301,VALID,0,
2002-12-04, 01:15:00,VALID,918.595,VALID,0,VALID,99.7434,VALID,-0.0849042,VALID,19.5268,VALID,301,VALID,0.00703125,
2002-12-04, 01:16:00,VALID,918.577,VALID,0,VALID,99.7358,VALID,-0.101885,VALID,19.5464,VALID,307,VALID,0.103631,
2002-12-04, 01:17:00,VALID,918.548,VALID,0,VALID,99.7396,VALID,-0.101885,VALID,19.5432,VALID,341,VALID,0.230357,
2002-12-04, 01:18:01,VALID,918.519,VALID,0,VALID,99.7447,VALID,-0.0509425,VALID,19.5365,VALID,339,VALID,0.626603,
2002-12-04, 01:19:00,VALID,918.496,VALID,0,VALID,99.7358,VALID,-0.0849042,VALID,19.5596,VALID,340,VALID,0.38978,
2002-12-04, 01:20:00,VALID,918.469,VALID,0,VALID,99.737,VALID,-0.101885,VALID,19.5693,VALID,9,VALID,0.528571,
2002-12-04, 01:21:00,VALID,918.448,VALID,0,VALID,99.7408,VALID,-0.0679233,VALID,19.5529,VALID,309,VALID,0.685497,
2002-12-04, 01:22:00,VALID,918.432,VALID,0,VALID,99.737,VALID,-0.101885,VALID,19.5138,VALID,8,VALID,0.568623,
2002-12-04, 01:23:00,VALID,918.417,VALID,0,VALID,99.7408,VALID,-0.101885,VALID,19.5469,VALID,11,VALID,0.0913628,
2002-12-04, 01:24:00,VALID,918.399,VALID,0,VALID,99.7459,VALID,-0.0849042,VALID,19.5593,VALID,6,VALID,0.219141,
2002-12-04, 01:25:00,VALID,918.388,VALID,0,VALID,99.7383,VALID,-0.0509425,VALID,19.5819,VALID,3,VALID,0.0992647,
2002-12-04, 01:26:00,VALID,918.375,VALID,0,VALID,99.7319,VALID,-0.101885,VALID,19.5693,VALID,2,VALID,0.325955,
2002-12-04, 01:27:00,VALID,918.361,VALID,0,VALID,99.7408,VALID,-0.101885,VALID,19.5988,VALID,12,VALID,0.586914,
2002-12-04, 01:28:00,VALID,918.343,VALID,0,VALID,99.7281,VALID,-0.101885,VALID,19.6013,VALID,17,VALID,0.497932,
2002-12-04, 01:29:00,VALID,918.321,VALID,0,VALID,99.7294,VALID,-0.0849042,VALID,19.6078,VALID,5,VALID,0.534598,
2002-12-04, 01:30:01,VALID,918.307,VALID,0,VALID,99.7434,VALID,-0.0679233,VALID,19.5944,VALID,360,VALID,0.833333,
2002-12-04, 01:31:00,VALID,918.293,VALID,0,VALID,99.7281,VALID,-0.0849042,VALID,19.5916,VALID,360,VALID,0.872044,
2002-12-04, 01:32:00,VALID,918.27,VALID,0,VALID,99.7319,VALID,-0.0849042,VALID,19.5461,VALID,6,VALID,1.10045,
2002-12-04, 01:33:00,VALID,918.262,VALID,0,VALID,99.7307,VALID,-0.0679233,VALID,19.5305,VALID,8,VALID,0.860377,
2002-12-04, 01:34:00,VALID,918.24,VALID,0,VALID,99.7345,VALID,-0.101885,VALID,19.4905,VALID,8,VALID,0.523649,
2002-12-04, 01:35:00,VALID,918.223,VALID,0,VALID,99.7383,VALID,-0.101885,VALID,19.4915,VALID,18,VALID,0.678385,
2002-12-04, 01:36:00,VALID,918.193,VALID,0,VALID,99.7497,VALID,-0.0169808,VALID,19.4709,VALID,7,VALID,0.91875,
2002-12-04, 01:37:00,VALID,918.18,VALID,0,VALID,99.7383,VALID,0.0509425,VALID,19.4739,VALID,5,VALID,0.828355,
2002-12-04, 01:38:00,VALID,918.168,VALID,0,VALID,99.7421,VALID,0.0509425,VALID,19.4706,VALID,16,VALID,0.550998,
2002-12-04, 01:39:00,VALID,918.167,VALID,0,VALID,99.7497,VALID,0.0339617,VALID,19.4542,VALID,13,VALID,0.716602,
2002-12-04, 01:40:00,VALID,918.178,VALID,0,VALID,99.737,VALID,0.0339617,VALID,19.4739,VALID,11,VALID,0.700597,
2002-12-04, 01:41:00,VALID,918.165,VALID,0,VALID,99.7408,VALID,0.0339617,VALID,19.4801,VALID,13,VALID,0.862054,
2002-12-04, 01:42:00,VALID,918.167,VALID,0,VALID,99.7447,VALID,0.0339617,VALID,19.4937,VALID,21,VALID,0.908053,
2002-12-04, 01:43:00,VALID,918.164,VALID,0,VALID,99.7396,VALID,0,VALID,19.4766,VALID,15,VALID,1.0114,
2002-12-04, 01:44:00,VALID,918.165,VALID,0,VALID,99.7396,VALID,0.0169808,VALID,19.4739,VALID,13,VALID,0.847321,
2002-12-04, 01:45:00,VALID,918.135,VALID,0,VALID,99.7358,VALID,0.0169808,VALID,19.4935,VALID,12,VALID,0.658654,
2002-12-04, 01:46:00,VALID,918.12,VALID,0,VALID,99.7396,VALID,0,VALID,19.4967,VALID,11,VALID,0.594806,
2002-12-04, 01:47:00,VALID,918.1,VALID,0,VALID,99.737,VALID,0.0169808,VALID,19.4604,VALID,9,VALID,0.43533,
2002-12-04, 01:48:00,VALID,918.085,VALID,0,VALID,99.7561,VALID,0,VALID,19.4647,VALID,349,VALID,0.479883,
2002-12-04, 01:49:00,VALID,918.083,VALID,0,VALID,99.7434,VALID,0.0169808,VALID,19.4413,VALID,345,VALID,0.508272,
2002-12-04, 01:50:00,VALID,918.073,VALID,0,VALID,99.7421,VALID,0.0169808,VALID,19.4256,VALID,340,VALID,0.491102,
2002-12-04, 01:51:00,VALID,918.072,VALID,0,VALID,99.7434,VALID,-0.0849042,VALID,19.4072,VALID,336,VALID,0.286133,
2002-12-04, 01:52:00,VALID,918.063,VALID,0,VALID,99.7396,VALID,-0.101885,VALID,19.4043,VALID,322,VALID,0.268842,
2002-12-04, 01:53:00,VALID,918.072,VALID,0,VALID,99.7421,VALID,-0.101885,VALID,19.3978,VALID,322,VALID,0.105134,
2002-12-04, 01:54:00,VALID,918.076,VALID,0,VALID,99.7523,VALID,-0.101885,VALID,19.4139,VALID,322,VALID,0.00200321,
2002-12-04, 01:55:00,VALID,918.075,VALID,0,VALID,99.7447,VALID,-0.101885,VALID,19.4177,VALID,322,VALID,0,
2002-12-04, 01:56:00,VALID,918.075,VALID,0,VALID,99.7408,VALID,-0.0679233,VALID,19.4236,VALID,322,VALID,0,
2002-12-04, 01:57:00,VALID,918.087,VALID,0,VALID,99.7408,VALID,-0.0849042,VALID,19.4366,VALID,322,VALID,0,
2002-12-04, 01:58:00,VALID,918.103,VALID,0,VALID,99.7383,VALID,-0.101885,VALID,19.4562,VALID,322,VALID,0,
2002-12-04, 01:59:00,VALID,918.119,VALID,0,VALID,99.7332,VALID,-0.0849042,VALID,19.4753,VALID,322,VALID,0,
2002-12-04, 02:00:00,VALID,918.125,VALID,0,VALID,99.7345,VALID,-0.0679233,VALID,19.5007,VALID,322,VALID,0.09375,
2002-12-04, 02:01:01,VALID,918.144,VALID,0,VALID,99.737,VALID,-0.0679233,VALID,19.5273,VALID,322,VALID,0.0824908,
2002-12-04, 02:02:01,VALID,918.128,VALID,0,VALID,99.7332,VALID,-0.0679233,VALID,19.5367,VALID,322,VALID,0.00954861,
2002-12-04, 02:03:00,VALID,918.121,VALID,0,VALID,99.7294,VALID,-0.101885,VALID,19.5755,VALID,322,VALID,0.0263672,
2002-12-04, 02:04:00,VALID,918.103,VALID,0,VALID,99.7281,VALID,-0.0849042,VALID,19.6078,VALID,322,VALID,0.00597426,
2002-12-04, 02:05:01,VALID,918.093,VALID,0,VALID,99.723,VALID,-0.0339617,VALID,19.6274,VALID,343,VALID,0.139476,
2002-12-04, 02:06:01,VALID,918.093,VALID,0,VALID,99.7167,VALID,0.0339617,VALID,19.6292,VALID,345,VALID,0.150441,
2002-12-04, 02:07:00,VALID,918.097,VALID,0,VALID,99.7192,VALID,0.0679233,VALID,19.6515,VALID,346,VALID,0.196791,
2002-12-04, 02:08:00,VALID,918.087,VALID,0,VALID,99.7243,VALID,0.0509425,VALID,19.6741,VALID,346,VALID,0.150893,
2002-12-04, 02:09:00,VALID,918.103,VALID,0,VALID,99.718,VALID,0.101885,VALID,19.6734,VALID,346,VALID,0.00801282,
2002-12-04, 02:10:01,VALID,918.114,VALID,0,VALID,99.7205,VALID,0.0679233,VALID,19.6639,VALID,346,VALID,0.0603885,
2002-12-04, 02:11:01,VALID,918.123,VALID,0,VALID,99.7256,VALID,0.0339617,VALID,19.6254,VALID,346,VALID,0.00390625,
2002-12-04, 02:12:01,VALID,918.125,VALID,0,VALID,99.7256,VALID,0.0679233,VALID,19.6053,VALID,346,VALID,0,
2002-12-04, 02:13:01,VALID,918.141,VALID,0,VALID,99.7269,VALID,0.0849042,VALID,19.5926,VALID,346,VALID,0,
2002-12-04, 02:14:01,VALID,918.142,VALID,0,VALID,99.7256,VALID,0.0679233,VALID,19.6026,VALID,347,VALID,0.00651042,
2002-12-04, 02:15:01,VALID,918.128,VALID,0,VALID,99.7256,VALID,0.0339617,VALID,19.6257,VALID,4,VALID,0.139062,
2002-12-04, 02:16:01,VALID,918.125,VALID,0,VALID,99.7332,VALID,0.0169808,VALID,19.6319,VALID,7,VALID,0.456342,
2002-12-04, 02:17:01,VALID,918.105,VALID,0,VALID,99.7281,VALID,0.0849042,VALID,19.6354,VALID,11,VALID,0.377455,
2002-12-04, 02:18:01,VALID,918.091,VALID,0,VALID,99.7281,VALID,0.0679233,VALID,19.6351,VALID,360,VALID,0.407853,
2002-12-04, 02:19:01,VALID,918.086,VALID,0,VALID,99.7205,VALID,0.0679233,VALID,19.6545,VALID,12,VALID,0.26837,
2002-12-04, 02:20:01,VALID,918.082,VALID,0,VALID,99.7205,VALID,0.0339617,VALID,19.6475,VALID,12,VALID,0.220313,
2002-12-04, 02:21:01,VALID,918.083,VALID,0,VALID,99.7218,VALID,-0.0169808,VALID,19.6654,VALID,12,VALID,0.0759215,
2002-12-04, 02:22:01,VALID,918.053,VALID,0,VALID,99.718,VALID,0,VALID,19.662,VALID,12,VALID,0.33087,
2002-12-04, 02:23:01,VALID,918.072,VALID,0,VALID,99.723,VALID,-0.0339617,VALID,19.6585,VALID,12,VALID,0.340061,
2002-12-04, 02:24:01,VALID,918.07,VALID,0,VALID,99.7205,VALID,-0.0169808,VALID,19.6851,VALID,12,VALID,0.251953,
2002-12-04, 02:25:01,VALID,918.072,VALID,0,VALID,99.7319,VALID,-0.0849042,VALID,19.6813,VALID,12,VALID,0.238051,
2002-12-04, 02:26:01,VALID,918.064,VALID,0,VALID,99.7218,VALID,-0.0509425,VALID,19.7015,VALID,12,VALID,0.170139,
2002-12-04, 02:27:01,VALID,918.057,VALID,0,VALID,99.7256,VALID,-0.0679233,VALID,19.6846,VALID,12,VALID,0.35332,
2002-12-04, 02:28:01,VALID,918.041,VALID,0,VALID,99.7269,VALID,-0.0339617,VALID,19.6784,VALID,13,VALID,0.755515,
2002-12-04, 02:29:01,VALID,918.03,VALID,0,VALID,99.7218,VALID,-0.0679233,VALID,19.653,VALID,359,VALID,0.602455,
2002-12-04, 02:30:01,VALID,918.015,VALID,0,VALID,99.723,VALID,-0.0849042,VALID,19.6207,VALID,7,VALID,0.646835,
2002-12-04, 02:31:01,VALID,918,VALID,0,VALID,99.723,VALID,-0.0169808,VALID,19.5978,VALID,12,VALID,0.837627,
2002-12-04, 02:32:00,VALID,917.974,VALID,0,VALID,99.7307,VALID,-0.0169808,VALID,19.5874,VALID,21,VALID,0.65,
2002-12-04, 02:33:00,VALID,917.969,VALID,0,VALID,99.7307,VALID,-0.0849042,VALID,19.5877,VALID,23,VALID,0.477163,
2002-12-04, 02:34:00,VALID,917.952,VALID,0,VALID,99.7358,VALID,-0.0339617,VALID,19.6142,VALID,22,VALID,0.59924,
2002-12-04, 02:35:00,VALID,917.943,VALID,0,VALID,99.723,VALID,0,VALID,19.5944,VALID,18,VALID,0.492188,
2002-12-04, 02:36:00,VALID,917.936,VALID,0,VALID,99.7408,VALID,-0.0169808,VALID,19.5747,VALID,15,VALID,0.278516,
2002-12-04, 02:37:00,VALID,917.926,VALID,0,VALID,99.737,VALID,-0.0339617,VALID,19.5583,VALID,14,VALID,0.232077,
2002-12-04, 02:38:00,VALID,917.912,VALID,0,VALID,99.7497,VALID,-0.0679233,VALID,19.5424,VALID,14,VALID,0.207465,
2002-12-04, 02:39:00,VALID,917.896,VALID,0,VALID,99.7459,VALID,-0.0169808,VALID,19.5365,VALID,14,VALID,0.0328125,
2002-12-04, 02:40:00,VALID,917.876,VALID,0,VALID,99.7447,VALID,-0.0339617,VALID,19.5457,VALID,14,VALID,0,
2002-12-04, 02:41:00,VALID,917.859,VALID,0,VALID,99.7459,VALID,-0.0509425,VALID,19.5685,VALID,14,VALID,0,
2002-12-04, 02:42:00,VALID,917.86,VALID,0,VALID,99.7408,VALID,-0.0169808,VALID,19.5685,VALID,14,VALID,0,
2002-12-04, 02:43:00,VALID,917.821,VALID,0,VALID,99.7421,VALID,-0.0339617,VALID,19.5621,VALID,14,VALID,0,
2002-12-04, 02:44:00,VALID,917.798,VALID,0,VALID,99.7447,VALID,-0.0339617,VALID,19.5653,VALID,14,VALID,0,
2002-12-04, 02:45:00,VALID,917.784,VALID,0,VALID,99.7421,VALID,0,VALID,19.5715,VALID,9,VALID,0.191707,
2002-12-04, 02:46:00,VALID,917.788,VALID,0,VALID,99.7421,VALID,0,VALID,19.5586,VALID,358,VALID,0.397382,
2002-12-04, 02:47:00,VALID,917.767,VALID,0,VALID,99.7408,VALID,-0.0339617,VALID,19.5521,VALID,350,VALID,0.347222,
2002-12-04, 02:48:00,VALID,917.755,VALID,0,VALID,99.7408,VALID,-0.0509425,VALID,19.5457,VALID,347,VALID,0.341992,
2002-12-04, 02:49:00,VALID,917.739,VALID,0,VALID,99.7408,VALID,-0.0339617,VALID,19.5519,VALID,358,VALID,0.462776,
2002-12-04, 02:50:00,VALID,917.743,VALID,0,VALID,99.7485,VALID,-0.0849042,VALID,19.5591,VALID,358,VALID,0.232639,
2002-12-04, 02:51:00,VALID,917.74,VALID,0,VALID,99.7434,VALID,-0.0339617,VALID,19.5621,VALID,356,VALID,0.421875,
2002-12-04, 02:52:00,VALID,917.724,VALID,0,VALID,99.737,VALID,-0.0339617,VALID,19.5683,VALID,354,VALID,0.456572,
2002-12-04, 02:53:00,VALID,917.726,VALID,0,VALID,99.7294,VALID,-0.0679233,VALID,19.5685,VALID,358,VALID,0.49933,
2002-12-04, 02:54:00,VALID,917.726,VALID,0,VALID,99.7408,VALID,-0.0339617,VALID,19.5844,VALID,18,VALID,0.501202,
2002-12-04, 02:55:00,VALID,917.729,VALID,0,VALID,99.7307,VALID,-0.101885,VALID,19.5941,VALID,359,VALID,0.520481,
2002-12-04, 02:56:00,VALID,917.715,VALID,0,VALID,99.7294,VALID,-0.0339617,VALID,19.5914,VALID,347,VALID,0.485045,
2002-12-04, 02:57:00,VALID,917.712,VALID,0,VALID,99.7358,VALID,-0.0679233,VALID,19.5782,VALID,340,VALID,0.579728,
2002-12-04, 02:58:00,VALID,917.705,VALID,0,VALID,99.7421,VALID,-0.0509425,VALID,19.5389,VALID,339,VALID,0.452914,
2002-12-04, 02:59:00,VALID,917.713,VALID,0,VALID,99.7434,VALID,-0.0169808,VALID,19.5389,VALID,320,VALID,0.368707,
2002-12-04, 03:00:00,VALID,917.694,VALID,0,VALID,99.7472,VALID,-0.0339617,VALID,19.53,VALID,319,VALID,0.212891,
2002-12-04, 03:01:00,VALID,917.687,VALID,0,VALID,99.7485,VALID,-0.0169808,VALID,19.5002,VALID,319,VALID,0.178768,
2002-12-04, 03:02:00,VALID,917.664,VALID,0,VALID,99.7434,VALID,-0.0339617,VALID,19.5171,VALID,316,VALID,0.126953,
2002-12-04, 03:03:00,VALID,917.666,VALID,0,VALID,99.7447,VALID,-0.0849042,VALID,19.5096,VALID,294,VALID,0.181641,
2002-12-04, 03:04:00,VALID,917.641,VALID,0,VALID,99.7408,VALID,-0.0679233,VALID,19.5039,VALID,293,VALID,0.298024,
2002-12-04, 03:05:00,VALID,917.647,VALID,0,VALID,99.7421,VALID,0,VALID,19.5071,VALID,293,VALID,0.0455357,
2002-12-04, 03:06:00,VALID,917.614,VALID,0,VALID,99.7523,VALID,0.0339617,VALID,19.4962,VALID,293,VALID,0.332532,
2002-12-04, 03:07:00,VALID,917.597,VALID,0,VALID,99.7472,VALID,0.0679233,VALID,19.4965,VALID,293,VALID,0.0202703,
2002-12-04, 03:08:00,VALID,917.571,VALID,0,VALID,99.7472,VALID,0.0169808,VALID,19.5064,VALID,293,VALID,0.184375,
2002-12-04, 03:09:00,VALID,917.559,VALID,0,VALID,99.7358,VALID,0.0169808,VALID,19.5248,VALID,293,VALID,0.274239,
2002-12-04, 03:10:00,VALID,917.536,VALID,0,VALID,99.7434,VALID,0.0679233,VALID,19.5156,VALID,293,VALID,0.293285,
2002-12-04, 03:11:00,VALID,917.536,VALID,0,VALID,99.7421,VALID,0.0339617,VALID,19.5218,VALID,293,VALID,0.0132378,
2002-12-04, 03:12:00,VALID,917.516,VALID,0,VALID,99.7408,VALID,0,VALID,19.5449,VALID,293,VALID,0.0369141,
2002-12-04, 03:13:00,VALID,917.498,VALID,0,VALID,99.7408,VALID,0.0509425,VALID,19.5479,VALID,293,VALID,0.0914522,
2002-12-04, 03:14:00,VALID,917.476,VALID,0,VALID,99.7447,VALID,0.0339617,VALID,19.5541,VALID,293,VALID,0.14388,
2002-12-04, 03:15:00,VALID,917.466,VALID,0,VALID,99.7383,VALID,0.0849042,VALID,19.5497,VALID,293,VALID,0.107031,
2002-12-04, 03:16:00,VALID,917.485,VALID,0,VALID,99.7421,VALID,0,VALID,19.5767,VALID,293,VALID,0.119945,
2002-12-04, 03:17:00,VALID,917.475,VALID,0,VALID,99.7345,VALID,0.0509425,VALID,19.5737,VALID,293,VALID,0,
2002-12-04, 03:18:00,VALID,917.487,VALID,0,VALID,99.7396,VALID,0.0339617,VALID,19.5641,VALID,293,VALID,0,
2002-12-04, 03:19:00,VALID,917.485,VALID,0,VALID,99.737,VALID,0.0509425,VALID,19.5536,VALID,293,VALID,0,
2002-12-04, 03:20:00,VALID,917.469,VALID,0,VALID,99.7294,VALID,0,VALID,19.5608,VALID,293,VALID,0,
2002-12-04, 03:21:00,VALID,917.469,VALID,0,VALID,99.7345,VALID,-0.0679233,VALID,19.5621,VALID,293,VALID,0,
2002-12-04, 03:22:00,VALID,917.457,VALID,0,VALID,99.7332,VALID,-0.101885,VALID,19.5491,VALID,293,VALID,0,
2002-12-04, 03:23:00,VALID,917.455,VALID,0,VALID,99.7447,VALID,-0.0509425,VALID,19.5688,VALID,293,VALID,0,
2002-12-04, 03:24:00,VALID,917.444,VALID,0,VALID,99.7459,VALID,-0.0339617,VALID,19.5593,VALID,293,VALID,0,
2002-12-04, 03:25:00,VALID,917.449,VALID,0,VALID,99.7408,VALID,-0.0679233,VALID,19.5658,VALID,293,VALID,0,
2002-12-04, 03:26:00,VALID,917.456,VALID,0,VALID,99.7358,VALID,-0.101885,VALID,19.5683,VALID,293,VALID,0,
2002-12-04, 03:27:00,VALID,917.449,VALID,0,VALID,99.7345,VALID,-0.0509425,VALID,19.565,VALID,293,VALID,0,
2002-12-04, 03:28:00,VALID,917.458,VALID,0,VALID,99.7358,VALID,-0.101885,VALID,19.5787,VALID,293,VALID,0.0806526,
2002-12-04, 03:29:00,VALID,917.461,VALID,0,VALID,99.7332,VALID,-0.0849042,VALID,19.5986,VALID,294,VALID,0.212054,
2002-12-04, 03:30:00,VALID,917.446,VALID,0,VALID,99.737,VALID,-0.0849042,VALID,19.6142,VALID,294,VALID,0.163462,
2002-12-04, 03:31:00,VALID,917.448,VALID,0,VALID,99.7408,VALID,-0.0849042,VALID,19.6304,VALID,294,VALID,0.0177365,